When you browse on this site, cookies collect data to enhance your experience and personalize the content and advertising you see.
Visit our Privacy Policy to learn more. By continuing to use the site, you agree to this use of cookies and data.
  • In Spain
  • List of Countries
  • For 7 days
  • Water Temperature
  • Satellite Maps
  • Weather Map
  • Weather Widgets
  • user-avatar
    Login

    Hourly Weather Dhamar

    Today, 17 June, Monday

    Time Temperature Precipitation Wind Pressure Humidity
    00:00 +21°C° 0.1 mm 0 mps 584 mmHg 58%
    01:00 +23°C° 0 mm 1 mps 583 mmHg 57%
    02:00 +22°C° 0 mm 1 mps 583 mmHg 56%
    03:00 +22°C° 0 mm 1 mps 582 mmHg 55%
    04:00 +22°C° 0 mm 1 mps 582 mmHg 56%
    05:00 +20°C° 0 mm 0 mps 583 mmHg 57%
    06:00 +19°C° 0 mm 0 mps 583 mmHg 58%
    07:00 +21°C° 0 mm 0 mps 584 mmHg 50%
    08:00 +24°C° 0 mm 1 mps 585 mmHg 43%
    09:00 +26°C° 0 mm 1 mps 586 mmHg 36%
    10:00 +26°C° 0.1 mm 2 mps 586 mmHg 36%
    11:00 +27°C° 0.1 mm 3 mps 586 mmHg 36%
    12:00 +27°C° 0.1 mm 3 mps 586 mmHg 36%
    13:00 +27°C° 0.8 mm 3 mps 585 mmHg 40%
    14:00 +26°C° 0.8 mm 3 mps 585 mmHg 43%
    15:00 +25°C° 0.8 mm 3 mps 584 mmHg 47%
    16:00 +22°C° 1.8 mm 3 mps 583 mmHg 55%
    17:00 +20°C° 1.8 mm 3 mps 583 mmHg 64%
    18:00 +19°C° 1.8 mm 3 mps 582 mmHg 72%
    19:00 +19°C° 0 mm 2 mps 582 mmHg 68%
    20:00 +21°C° 0 mm 1 mps 583 mmHg 64%
    21:00 +21°C° 0 mm 1 mps 583 mmHg 60%
    22:00 +21°C° 0 mm 1 mps 583 mmHg 59%
    23:00 +22°C° 0 mm 1 mps 583 mmHg 58%

    Tomorrow, 18 June, Tuesday

    Time Temperature Precipitation Wind Pressure Humidity
    00:00 +22°C° 0 mm 1 mps 584 mmHg 57%
    01:00 +21°C° 0 mm 1 mps 583 mmHg 56%
    02:00 +21°C° 0 mm 1 mps 583 mmHg 55%
    03:00 +21°C° 0 mm 1 mps 583 mmHg 54%
    04:00 +21°C° 0 mm 1 mps 583 mmHg 54%
    05:00 +21°C° 0 mm 1 mps 583 mmHg 55%
    06:00 +19°C° 0 mm 0 mps 583 mmHg 55%
    07:00 +22°C° 0 mm 1 mps 584 mmHg 48%
    08:00 +24°C° 0 mm 1 mps 585 mmHg 41%
    09:00 +26°C° 0 mm 2 mps 586 mmHg 33%
    10:00 +26°C° 0 mm 2 mps 586 mmHg 33%
    11:00 +27°C° 0 mm 3 mps 586 mmHg 33%
    12:00 +27°C° 0 mm 3 mps 586 mmHg 33%
    13:00 +27°C° 0 mm 4 mps 585 mmHg 35%
    14:00 +27°C° 0 mm 4 mps 585 mmHg 37%
    15:00 +27°C° 0 mm 5 mps 585 mmHg 39%
    16:00 +27°C° 0.4 mm 4 mps 584 mmHg 42%
    17:00 +26°C° 0.4 mm 4 mps 584 mmHg 46%
    18:00 +25°C° 0.4 mm 3 mps 583 mmHg 50%
    19:00 +24°C° 0.4 mm 2 mps 583 mmHg 55%
    20:00 +23°C° 0.4 mm 2 mps 583 mmHg 61%
    21:00 +23°C° 0.4 mm 1 mps 583 mmHg 66%
    22:00 +22°C° 0 mm 1 mps 583 mmHg 66%
    23:00 +22°C° 0 mm 1 mps 583 mmHg 66%

    Day after tomorrow, 19 June, Wednesday

    Time Temperature Precipitation Wind Pressure Humidity
    00:00 +22°C° 0 mm 1 mps 583 mmHg 65%
    01:00 +22°C° 0 mm 1 mps 582 mmHg 63%
    02:00 +22°C° 0 mm 1 mps 582 mmHg 61%
    03:00 +21°C° 0 mm 1 mps 582 mmHg 58%
    04:00 +21°C° 0 mm 1 mps 582 mmHg 58%
    05:00 +21°C° 0 mm 1 mps 582 mmHg 59%
    06:00 +21°C° 0 mm 1 mps 582 mmHg 59%
    07:00 +23°C° 0 mm 1 mps 583 mmHg 50%
    08:00 +24°C° 0 mm 1 mps 584 mmHg 41%
    09:00 +26°C° 0 mm 2 mps 585 mmHg 32%
    10:00 +27°C° 0 mm 2 mps 585 mmHg 29%
    11:00 +28°C° 0 mm 3 mps 586 mmHg 27%
    12:00 +29°C° 0 mm 3 mps 586 mmHg 25%
    13:00 +28°C° 0.1 mm 4 mps 585 mmHg 29%
    14:00 +28°C° 0.1 mm 4 mps 585 mmHg 32%
    15:00 +28°C° 0.1 mm 4 mps 584 mmHg 36%
    16:00 +26°C° 0.9 mm 4 mps 584 mmHg 42%
    17:00 +25°C° 0.9 mm 4 mps 583 mmHg 47%
    18:00 +22°C° 0.9 mm 4 mps 583 mmHg 53%
    19:00 +22°C° 0.1 mm 3 mps 583 mmHg 54%
    20:00 +23°C° 0.1 mm 2 mps 583 mmHg 54%
    21:00 +23°C° 0.1 mm 1 mps 584 mmHg 55%
    22:00 +23°C° 0 mm 1 mps 583 mmHg 53%
    23:00 +23°C° 0 mm 1 mps 583 mmHg 51%

    20 June, Thursday

    Time Temperature Precipitation Wind Pressure Humidity
    00:00 +24°C° 0 mm 2 mps 583 mmHg 48%
    01:00 +23°C° 0 mm 1 mps 583 mmHg 48%
    02:00 +23°C° 0 mm 1 mps 583 mmHg 48%
    03:00 +22°C° 0 mm 1 mps 582 mmHg 48%
    04:00 +22°C° 0 mm 1 mps 582 mmHg 50%
    05:00 +22°C° 0 mm 1 mps 582 mmHg 51%
    06:00 +19°C° 0 mm 0 mps 582 mmHg 53%
    07:00 +23°C° 0 mm 1 mps 583 mmHg 46%
    08:00 +24°C° 0 mm 1 mps 584 mmHg 38%
    09:00 +26°C° 0 mm 1 mps 585 mmHg 31%
    10:00 +27°C° 0 mm 2 mps 585 mmHg 30%
    11:00 +27°C° 0 mm 2 mps 585 mmHg 29%
    12:00 +28°C° 0 mm 3 mps 585 mmHg 28%
    13:00 +28°C° 0 mm 3 mps 585 mmHg 29%
    14:00 +28°C° 0 mm 4 mps 584 mmHg 31%
    15:00 +28°C° 0 mm 5 mps 584 mmHg 33%
    16:00 +26°C° 0.9 mm 4 mps 583 mmHg 41%
    17:00 +23°C° 0.9 mm 4 mps 582 mmHg 49%
    18:00 +21°C° 0.9 mm 3 mps 582 mmHg 57%
    19:00 +21°C° 0 mm 3 mps 582 mmHg 57%
    20:00 +21°C° 0 mm 2 mps 582 mmHg 57%
    21:00 +21°C° 0 mm 2 mps 583 mmHg 56%
    22:00 +22°C° 0 mm 1 mps 583 mmHg 55%
    23:00 +22°C° 0 mm 1 mps 583 mmHg 53%

    21 June, Friday

    Time Temperature Precipitation Wind Pressure Humidity
    00:00 +23°C° 0 mm 1 mps 583 mmHg 51%
    01:00 +22°C° 0 mm 1 mps 582 mmHg 50%
    02:00 +22°C° 0 mm 1 mps 582 mmHg 50%
    03:00 +21°C° 0 mm 1 mps 581 mmHg 49%
    04:00 +19°C° 0 mm 0 mps 581 mmHg 50%
    05:00 +19°C° 0 mm 0 mps 582 mmHg 51%
    06:00 +19°C° 0 mm 0 mps 582 mmHg 51%
    07:00 +22°C° 0 mm 1 mps 583 mmHg 45%
    08:00 +24°C° 0 mm 1 mps 584 mmHg 38%
    09:00 +26°C° 0 mm 1 mps 585 mmHg 32%
    10:00 +27°C° 0 mm 2 mps 585 mmHg 31%
    11:00 +27°C° 0 mm 2 mps 585 mmHg 30%
    12:00 +28°C° 0 mm 3 mps 585 mmHg 29%
    13:00 +27°C° 0 mm 3 mps 584 mmHg 31%
    14:00 +27°C° 0 mm 2 mps 584 mmHg 34%
    15:00 +26°C° 0 mm 1 mps 583 mmHg 36%
    16:00 +25°C° 0.2 mm 1 mps 583 mmHg 41%
    17:00 +25°C° 0.2 mm 1 mps 582 mmHg 45%
    18:00 +24°C° 0.2 mm 1 mps 582 mmHg 50%
    19:00 +23°C° 0.2 mm 1 mps 582 mmHg 54%
    20:00 +22°C° 0.2 mm 1 mps 582 mmHg 59%
    21:00 +22°C° 0.2 mm 1 mps 582 mmHg 64%
    22:00 +22°C° 0 mm 1 mps 582 mmHg 62%
    23:00 +22°C° 0 mm 1 mps 582 mmHg 61%

    22 June, Saturday

    Time Temperature Precipitation Wind Pressure Humidity
    00:00 +22°C° 0 mm 1 mps 582 mmHg 59%
    01:00 +22°C° 0 mm 1 mps 581 mmHg 58%
    02:00 +22°C° 0 mm 1 mps 581 mmHg 57%
    03:00 +21°C° 0 mm 1 mps 581 mmHg 56%
    04:00 +21°C° 0 mm 1 mps 581 mmHg 56%
    05:00 +21°C° 0 mm 1 mps 581 mmHg 57%
    06:00 +19°C° 0 mm 0 mps 581 mmHg 57%
    07:00 +22°C° 0 mm 1 mps 582 mmHg 51%
    08:00 +24°C° 0 mm 1 mps 583 mmHg 44%
    09:00 +25°C° 0 mm 1 mps 584 mmHg 37%
    10:00 +26°C° 0 mm 1 mps 584 mmHg 35%
    11:00 +27°C° 0 mm 2 mps 584 mmHg 33%
    12:00 +28°C° 0 mm 2 mps 584 mmHg 30%
    13:00 +27°C° 0.1 mm 3 mps 584 mmHg 34%
    14:00 +27°C° 0.1 mm 4 mps 583 mmHg 38%
    15:00 +26°C° 0.1 mm 4 mps 583 mmHg 42%
    16:00 +25°C° 0.5 mm 3 mps 583 mmHg 45%
    17:00 +25°C° 0.5 mm 3 mps 582 mmHg 48%
    18:00 +24°C° 0.5 mm 2 mps 582 mmHg 51%
    19:00 +24°C° 0.1 mm 1 mps 582 mmHg 53%
    20:00 +23°C° 0.1 mm 1 mps 583 mmHg 56%
    21:00 +23°C° 0.1 mm 1 mps 583 mmHg 58%
    22:00 +21°C° 0 mm 0 mps 582 mmHg 59%
    23:00 +21°C° 0 mm 0 mps 582 mmHg 60%
    Show more